| time (UTC) | temp F | wind direction | speed knots | gust knots | rain 1hr in | rain 24hr in | rain mn in | humidity % | barometer mb |
| 20260505211540 | 61 | 242 | 3.5 | 7.8 | 0.00 | 0.00 | 0.00 | 76 | 1017.7 |
| 20260505210046 | 60 | 167 | 2.6 | 8.7 | 0.00 | 0.00 | 0.00 | 77 | 1017.7 |
| 20260505204547 | 60 | 173 | 2.6 | 6.1 | 0.00 | 0.00 | 0.00 | 77 | 1017.8 |
| 20260505203038 | 59 | 213 | 0.9 | 7.0 | 0.00 | 0.00 | 0.00 | 79 | 1017.9 |
| 20260505201541 | 59 | 143 | 1.7 | 4.3 | 0.00 | 0.00 | 0.00 | 80 | 1017.8 |
| 20260505200042 | 58 | 238 | 1.7 | 6.1 | 0.00 | 0.00 | 0.00 | 80 | 1017.8 |
| 20260505194540 | 58 | 201 | 1.7 | 6.1 | 0.00 | 0.00 | 0.00 | 80 | 1017.9 |
| 20260505193042 | 58 | 189 | 2.6 | 8.7 | 0.00 | 0.00 | 0.00 | 81 | 1017.8 |
| 20260505191537 | 58 | 165 | 2.6 | 7.8 | 0.00 | 0.00 | 0.00 | 81 | 1017.7 |
| 20260505190037 | 57 | 196 | 3.5 | 10.4 | 0.00 | 0.00 | 0.00 | 81 | 1017.8 |
| 20260505184537 | 57 | 203 | 2.6 | 7.0 | 0.00 | 0.00 | 0.00 | 81 | 1017.7 |
| 20260505183049 | 57 | 215 | 1.7 | 8.7 | 0.00 | 0.00 | 0.00 | 82 | 1017.7 |
| 20260505181539 | 57 | 205 | 3.5 | 7.8 | 0.00 | 0.00 | 0.00 | 82 | 1017.6 |
| 20260505180043 | 56 | 169 | 1.7 | 5.2 | 0.00 | 0.00 | 0.00 | 82 | 1017.7 |
| 20260505174537 | 56 | 190 | 1.7 | 6.1 | 0.00 | 0.00 | 0.00 | 83 | 1017.6 |
| 20260505173038 | 56 | 157 | 1.7 | 8.7 | 0.00 | 0.00 | 0.00 | 84 | 1017.6 |
| 20260505171537 | 56 | 145 | 2.6 | 7.8 | 0.00 | 0.00 | 0.00 | 84 | 1017.6 |
| 20260505170043 | 55 | 136 | 1.7 | 8.7 | 0.00 | 0.00 | 0.00 | 84 | 1017.5 |
| 20260505164553 | 55 | 215 | 1.7 | 7.0 | 0.00 | 0.00 | 0.00 | 84 | 1017.6 |
| 20260505163039 | 55 | 188 | 3.5 | 7.8 | 0.00 | 0.00 | 0.00 | 84 | 1017.4 |
| 20260505161549 | 55 | 163 | 3.5 | 8.7 | 0.00 | 0.00 | 0.00 | 84 | 1017.5 |
| 20260505153045 | 55 | 202 | 1.7 | 7.0 | 0.00 | 0.00 | 0.00 | 85 | 1017.3 |
| 20260505151538 | 55 | 223 | 2.6 | 7.0 | 0.00 | 0.00 | 0.00 | 85 | 1017.2 |
| 20260505124545 | 54 | 196 | 2.6 | 8.7 | 0.00 | 0.00 | 0.00 | 87 | 1016.0 |
| 20260505123043 | 53 | 173 | 2.6 | 7.0 | 0.00 | 0.00 | 0.00 | 88 | 1015.9 |
| 20260505121539 | 53 | 197 | 4.3 | 11.3 | 0.00 | 0.00 | 0.00 | 88 | 1015.8 |
| 20260505120048 | 53 | 182 | 4.3 | 12.2 | 0.00 | 0.00 | 0.00 | 88 | 1015.8 |
| 20260505114536 | 53 | 186 | 3.5 | 9.6 | 0.00 | 0.00 | 0.00 | 88 | 1015.6 |
| 20260505113051 | 53 | 165 | 2.6 | 7.8 | 0.00 | 0.00 | 0.00 | 88 | 1015.6 |
| 20260505111538 | 53 | 150 | 4.3 | 9.6 | 0.00 | 0.00 | 0.00 | 88 | 1015.5 |
| 20260505101539 | 53 | 132 | 4.3 | 9.6 | 0.00 | 0.00 | 0.00 | 89 | 1015.3 |
| 20260505100039 | 53 | 181 | 2.6 | 8.7 | 0.00 | 0.00 | 0.00 | 89 | 1015.2 |
| 20260505094539 | 53 | 167 | 5.2 | 11.3 | 0.00 | 0.00 | 0.00 | 89 | 1015.1 |
| 20260505093038 | 53 | 134 | 4.3 | 12.2 | 0.00 | 0.00 | 0.00 | 89 | 1015.1 |
| 20260505091540 | 53 | 133 | 3.5 | 7.8 | 0.00 | 0.00 | 0.00 | 88 | 1015.0 |
| 20260505090038 | 53 | 77 | 1.7 | 6.1 | 0.00 | 0.00 | 0.00 | 88 | 1014.8 |
| 20260505084546 | 54 | 156 | 2.6 | 7.0 | 0.00 | 0.00 | 0.00 | 88 | 1014.7 |
| 20260505083046 | 54 | 186 | 2.6 | 8.7 | 0.00 | 0.00 | 0.00 | 87 | 1014.6 |
| 20260505081549 | 54 | 141 | 3.5 | 7.0 | 0.00 | 0.00 | 0.00 | 87 | 1014.6 |
| 20260505080043 | 54 | 115 | 4.3 | 10.4 | 0.00 | 0.00 | 0.00 | 87 | 1014.6 |
| 20260505074539 | 55 | 157 | 2.6 | 7.8 | 0.00 | 0.00 | 0.00 | 86 | 1014.7 |
| 20260505073039 | 55 | 146 | 4.3 | 11.3 | 0.00 | 0.00 | 0.00 | 85 | 1014.5 |
| 20260505071545 | 55 | 168 | 2.6 | 7.0 | 0.00 | 0.00 | 0.00 | 85 | 1014.3 |
| 20260505070047 | 56 | 188 | 0.9 | 5.2 | 0.00 | 0.00 | 0.00 | 84 | 1014.1 |
| 20260505064540 | 56 | 143 | 1.7 | 6.1 | 0.00 | 0.00 | 0.00 | 83 | 1014.1 |
| 20260505063039 | 57 | 155 | 2.6 | 7.0 | 0.00 | 0.00 | 0.00 | 82 | 1014.0 |
| 20260505061538 | 58 | 129 | 3.5 | 6.1 | 0.00 | 0.00 | 0.00 | 81 | 1013.8 |
| 20260505060042 | 58 | 177 | 0.0 | 6.1 | 0.00 | 0.00 | 0.00 | 80 | 1013.7 |
| 20260505054538 | 59 | 140 | 3.5 | 8.7 | 0.00 | 0.00 | 0.00 | 80 | 1013.5 |
| 20260505053105 | 59 | 149 | 4.3 | 10.4 | 0.00 | 0.00 | 0.00 | 79 | 1013.3 |
| 20260505051538 | 60 | 155 | 4.3 | 9.6 | 0.00 | 0.00 | 0.00 | 78 | 1013.2 |
| 20260505041545 | 64 | 129 | 1.7 | 3.5 | 0.00 | 0.00 | 0.00 | 72 | 1012.9 |
| 20260505040042 | 65 | 0 | 0.0 | 0.0 | 0.00 | 0.00 | 0.00 | 66 | 1012.6 |
| 20260505034537 | 66 | 0 | 0.0 | 0.9 | 0.00 | 0.00 | 0.00 | 64 | 1012.4 |
| 20260505033045 | 66 | 0 | 0.0 | 2.6 | 0.00 | 0.00 | 0.00 | 62 | 1012.4 |
| 20260505031536 | 67 | 160 | 0.0 | 4.3 | 0.00 | 0.00 | 0.00 | 60 | 1012.3 |
| 20260505030046 | 68 | 250 | 0.9 | 3.5 | 0.00 | 0.00 | 0.00 | 60 | 1012.3 |
| 20260505024540 | 69 | 342 | 1.7 | 4.3 | 0.00 | 0.00 | 0.00 | 57 | 1012.1 |
| 20260505023046 | 69 | 346 | 1.7 | 5.2 | 0.00 | 0.00 | 0.00 | 59 | 1012.0 |
| 20260505021537 | 68 | 14 | 2.6 | 8.7 | 0.00 | 0.00 | 0.00 | 61 | 1012.1 |
| 20260505020037 | 68 | 338 | 4.3 | 8.7 | 0.00 | 0.00 | 0.00 | 62 | 1012.1 |
| 20260505014537 | 70 | 327 | 4.3 | 10.4 | 0.00 | 0.00 | 0.00 | 59 | 1012.0 |
| 20260505013043 | 71 | 324 | 4.3 | 9.6 | 0.00 | 0.00 | 0.00 | 60 | 1012.0 |
| 20260505011558 | 73 | 349 | 5.2 | 8.7 | 0.00 | 0.00 | 0.00 | 55 | 1012.0 |
| 20260505010039 | 79 | 205 | 0.9 | 4.3 | 0.00 | 0.00 | 0.00 | 49 | 1012.0 |
| 20260505004537 | 80 | 205 | 1.7 | 4.3 | 0.00 | 0.00 | 0.00 | 48 | 1011.9 |
| 20260505003037 | 79 | 229 | 0.9 | 4.3 | 0.00 | 0.00 | 0.00 | 47 | 1012.1 |
| 20260505001538 | 80 | 0 | 1.7 | 3.5 | 0.00 | 0.00 | 0.00 | 46 | 1012.0 |
| 20260505000043 | 79 | 0 | 1.7 | 5.2 | 0.00 | 0.00 | 0.00 | 46 | 1011.9 |
| 20260504234540 | 80 | 264 | 1.7 | 5.2 | 0.00 | 0.00 | 0.00 | 46 | 1012.0 |
| 20260504233051 | 80 | 257 | 0.9 | 6.1 | 0.00 | 0.00 | 0.00 | 46 | 1012.0 |
| 20260504231538 | 79 | 246 | 1.7 | 5.2 | 0.00 | 0.00 | 0.00 | 46 | 1011.8 |
| 20260504230038 | 79 | 263 | 1.7 | 5.2 | 0.00 | 0.00 | 0.00 | 47 | 1011.8 |
| 20260504224544 | 79 | 229 | 1.7 | 6.1 | 0.00 | 0.00 | 0.00 | 48 | 1012.0 |
| 20260504223037 | 78 | 227 | 2.6 | 4.3 | 0.00 | 0.00 | 0.00 | 47 | 1012.1 |
| 20260504221539 | 78 | 235 | 1.7 | 4.3 | 0.00 | 0.00 | 0.00 | 49 | 1012.3 |
| 20260504220039 | 76 | 252 | 1.7 | 6.1 | 0.00 | 0.00 | 0.00 | 53 | 1012.4 |
| 20260504214538 | 75 | 242 | 2.6 | 6.1 | 0.00 | 0.00 | 0.00 | 58 | 1012.4 |
| 20260504213038 | 74 | 240 | 2.6 | 7.0 | 0.00 | 0.00 | 0.00 | 61 | 1012.5 |